Location: Dampvalley
(47.9094°N, 6.1967°E)
Time: 09:17:54
(UTC+00:00)

AO-109 - Pass Details

Date: 06 December 2021
Orbit: 478 x 516 km, 60.7° (Epoch: 21 January)

Event Time Altitude Azimuth Distance (km) Brightness Sun altitude
Exits shadow 04:02:55 20° 106° (ESE) 1,159 ? -30.3°
Drops below altitude 10° 04:04:14 10° 114° (ESE) 1,651 ? -30.1°
Sets 04:06:25 0° 121° (ESE) 2,527 ? -29.7°
